Location: Marysville Observatory
(48.1092°N, 122.1645°W)
Time: 20:40:51
(UTC-07:00)

Daily predictions for brighter satellites

Satellite Brightness Start Highest point End
(mag) Time Altitude Azimuth Time Altitude Azimuth Time Altitude Azimuth
CZ-4C R/B 3.9 20:42:39 10° NW 20:48:33 32° NNE 20:55:07 10° E
Cosmos 1733 Rocket 3.1 20:47:10 10° N 20:51:39 83° E 20:56:06 10° S
USA 229 DEB 4.4 20:46:42 10° S 20:52:31 31° ESE 20:58:28 10° NE
USA 229 4.4 20:46:50 10° S 20:52:38 31° ESE 20:58:34 10° NE
Cosmos 1992 Rocket 4.0 20:48:48 10° S 20:53:58 66° ESE 20:59:12 10° NNE
Cosmos 1862 3.3 20:50:08 10° N 20:54:11 86° ENE 20:58:14 10° S
Meteor 2-10 Rocket 4.2 20:52:10 10° SSE 20:57:35 42° E 21:02:57 10° NNE
Helios 1A 3.1 20:54:58 10° SSE 20:59:14 90° E 21:03:31 10° NNW
Cosmos 2026 Rocket 4.3 20:54:22 10° NNW 21:00:36 73° W 21:06:42 10° S
Cosmos 2219 Rocket 3.9 21:02:16 10° ESE 21:04:25 12° E 21:06:33 10° ENE
Okean 2 Rocket 4.4 21:00:54 10° NNE 21:04:40 25° ENE 21:08:18 10° SE
Cosmos 1862 Rocket 3.6 21:01:00 10° S 21:05:27 73° E 21:09:57 10° NNE
USA 186 3.2 21:08:45 10° SSW 21:11:25 34° W 21:14:15 10° NNW
USA 267 3.3 21:08:45 10° NE 21:15:21 89° SSE 21:21:55 10° WSW
SAR-Lupe-4 4.2 21:13:44 10° S 21:17:16 57° WSW 21:20:50 10° NNW
Meteor 1-26 Rocket 4.5 21:12:37 10° S 21:18:09 52° E 21:23:47 10° NNE
Cosmos 1939 Rocket 3.0 21:16:33 10° S 21:20:35 80° W 21:24:34 10° NNW
Cosmos 2263 Rocket 3.1 21:15:56 10° NW 21:21:14 46° WSW 21:26:31 10° S
Cosmos 968 Rocket 3.6 21:18:17 10° NNW 21:23:30 79° WSW 21:28:44 10° SSE
Abrixas rocket 2.2 21:21:33 10° W 21:24:52 83° N 21:27:47 13° E
Cosmos 1825 4.3 21:22:11 10° NNW 21:25:27 27° W 21:28:42 10° SSW
Cosmos 1703 Rocket 3.9 21:21:57 10° SSE 21:26:12 47° E 21:30:27 10° NNE
Terra 3.8 21:24:15 10° E 21:26:51 15° ENE 21:29:27 10° NNE
Meteor 1-29 3.0 21:25:12 10° NNE 21:28:42 85° WNW 21:32:09 10° SSW
CZ-4B DEB 3.8 21:28:25 10° S 21:31:19 41° W 21:34:14 10° NNW
Cosmos 2322 Rocket 3.3 21:31:34 10° SW 21:36:59 48° NW 21:42:28 10° NNE
Lacrosse 4 Rocket 4.3 21:35:17 10° W 21:37:06 12° WSW 21:38:56 10° SW
Helios 1B rocket 3.0 21:33:25 10° N 21:37:29 60° WNW 21:41:31 10° SSW
Cosmos 2237 4.4 21:32:09 10° S 21:37:38 49° ESE 21:43:09 10° NE
Atlas Centaur 2 4.2 21:37:03 10° SW 21:41:36 19° S 21:44:38 15° SSE
Cosmos 2360 Rocket 2.2 21:38:44 10° SSW 21:44:23 87° ESE 21:50:07 10° NNE
Envisat 4.0 21:40:01 10° S 21:44:51 44° W 21:49:43 10° NNW
MetOp-B 4.2 21:40:38 15° SSE 21:45:06 68° ENE 21:50:27 10° N
COSMOS 2428 3.0 21:41:43 10° S 21:47:06 45° ESE 21:52:31 10° NE
Cosmos 2266 Rocket 4.1 21:43:24 10° N 21:49:43 85° W 21:56:06 10° S
Cosmos 2221 Rocket 3.6 21:46:51 10° S 21:51:13 65° E 21:55:38 10° NNE
YAOGAN 11 4.1 21:48:43 19° SSE 21:51:49 72° ENE 21:56:08 10° N
USA 234 3.5 21:46:49 17° SE 21:52:01 61° SW 21:58:30 10° WNW
H-2A R/B 2.6 21:49:47 20° ESE 21:52:39 39° ENE 21:57:13 10° N
ATLAS 5 CENTAUR R/B 3.6 21:47:26 10° NW 21:52:52 37° WSW 21:58:43 10° S
Cosmos 1606 3.7 21:52:07 25° ESE 21:53:11 29° E 21:56:28 10° NNE
Cosmos 1844 3.8 21:49:03 10° NNW 21:54:44 65° ENE 21:58:22 22° SE
NOAA 11 4.2 21:52:40 16° SSE 21:57:12 87° ENE 22:02:44 10° NNW
Meteor 1-25 Rocket 4.2 21:55:17 10° NNW 22:00:54 87° W 22:05:20 17° S
Cosmos 2322 3.8 21:56:45 10° SSW 22:02:29 81° WNW 22:08:14 10° NNE
ARGOS 3.1 22:00:30 20° SSE 22:04:15 77° ENE 22:09:39 10° NNW
MOS 1-B Rocket 3.8 22:00:06 20° SSE 22:04:17 74° ENE 22:09:53 10° NNW
ERS-1 Rocket 3.5 22:02:01 11° S 22:06:40 56° W 22:11:38 10° NNW
SeaSat 1 2.5 22:04:32 25° SE 22:07:23 69° ENE 22:12:19 10° NNW
SL-16 R/B 4.1 22:03:02 10° WSW 22:08:05 32° NW 22:13:10 10° NNE
H-2A R/B 3.1 22:08:08 25° ESE 22:09:44 33° ENE 22:13:40 10° N
Meteor 1-20 Rocket 4.2 22:04:38 10° NNW 22:10:15 83° W 22:14:27 19° S
YAOGAN 6 4.1 22:07:06 11° SSW 22:10:19 33° W 22:13:38 10° NNW
Cosmos 2208 Rocket 4.5 22:13:58 26° SSE 22:16:18 40° ESE 22:21:15 10° NE
Cosmos 1244 Rocket 4.5 22:10:43 10° N 22:16:59 77° E 22:21:02 24° SSE
SL-08 RB Rocket 3.6 22:17:32 29° SSE 22:19:54 86° ENE 22:24:29 10° NNW
SPOT 5 2.9 22:18:27 24° S 22:21:21 74° WSW 22:25:55 10° NNW
Cosmos 1844 Rocket 2.9 22:17:19 10° NNW 22:22:50 64° WSW 22:26:05 25° S
Cosmos 2237 Rocket 3.0 22:22:05 29° SE 22:23:11 31° ESE 22:28:08 10° NE
Cosmos 2278 Rocket 2.3 22:19:01 10° NNW 22:24:40 63° ENE 22:27:20 31° SE
Cosmos 2333 4.1 22:18:58 10° SSW 22:24:41 77° ESE 22:30:29 10° NNE
Cosmos 2333 Rocket 2.6 22:23:51 27° SSE 22:26:31 44° ESE 22:31:58 10° NE
Cosmos 1300 Rocket 4.1 22:24:26 10° N 22:28:36 43° ENE 22:29:37 36° ESE
Iridium 4 Rocket 3.8 22:25:22 10° NNE 22:29:10 33° E 22:29:42 32° E
Cosmos 1553 Rocket 4.2 22:26:20 28° SSE 22:29:23 51° E 22:35:20 10° NNE
Meteor 2-6 Rocket 4.3 22:25:54 22° S 22:29:53 70° E 22:35:49 10° NNE
Cosmos 1898 Rocket 3.9 22:29:44 10° NNW 22:34:48 51° ENE 22:36:41 34° ESE
ASTEX 1 3.6 22:34:28 37° SE 22:36:12 57° E 22:41:05 10° N
NOSS 3-1 (C) 3.4 22:30:46 10° SSW 22:36:27 59° ESE 22:42:54 10° NE
CZ-4C R/B 2.8 22:31:03 10° NW 22:38:03 84° NE 22:42:12 31° SE
Okean 1-7 4.0 22:34:42 10° SSW 22:38:56 46° WNW 22:43:13 10° N
USA 245 4.5 22:36:24 22° S 22:39:49 54° WSW 22:44:21 10° NNW
SPOT 1/Viking Rocket 3.7 22:37:50 29° S 22:40:31 72° WSW 22:45:45 10° NNW
Okean 2 Rocket 4.3 22:38:41 10° NNW 22:42:52 38° W 22:45:42 18° SSW
USA 229 DEB 4.0 22:36:12 10° SW 22:43:01 69° NW 22:50:02 10° NE
USA 229 4.0 22:36:18 10° SW 22:43:08 70° NW 22:50:08 10° NE
Cosmos 1782 3.2 22:41:35 26° SSW 22:43:42 61° WNW 22:47:41 10° N
Cosmos 1633 2.6 22:43:37 10° NNW 22:47:18 72° W 22:47:52 58° SSW
Cosmos 2219 Rocket 2.1 22:43:11 18° SSW 22:47:21 77° ESE 22:53:00 10° NNE
TRAILBLAZER 4.4 22:44:26 19° SSW 22:47:38 76° SE 22:52:12 10° NE
Landsat 7 3.8 22:47:11 42° S 22:48:48 86° WSW 22:53:36 10° NNW
Cosmos 2084 3.4 22:46:14 10° NW 22:50:00 55° SW 22:50:26 51° SSW
Cosmos 1602 3.6 22:49:03 10° NNW 22:52:54 80° W 22:53:25 64° SSW
NOSS 3-1 (A) 3.4 22:49:49 25° SSW 22:53:13 58° ESE 22:59:39 10° NE
ATLAS 2AS CENTAUR R/B 4.2 22:55:31 21° ESE 22:55:31 21° ESE 23:00:55 10° ENE
Cosmos 1378 Rocket 4.2 22:56:21 38° E 22:56:21 38° E 23:00:22 10° NNE
Cosmos 1346 Rocket 2.6 22:57:35 71° S 22:57:59 85° E 23:02:00 10° NNE
USA 267 4.2 22:51:51 10° NE 22:58:04 48° NNW 23:04:17 10° W
PSLV R/B 4.2 23:00:15 38° N 23:00:15 38° N 23:02:10 10° N
S3M 3.9 22:57:44 34° S 23:00:36 80° E 23:06:52 10° N
Abrixas rocket 3.5 22:58:23 10° W 23:00:28 33° WSW 23:00:28 33° WSW
Terra 1.7 23:02:47 53° S 23:03:56 87° WSW 23:08:44 10° NNW
Cosmos 1709 Rocket 4.5 22:58:08 10° N 23:04:20 48° ENE 23:06:16 37° ESE
deb Chang Zheng 4 3.4 23:04:19 10° NNE 23:08:44 72° ESE 23:09:04 68° SE
Meteor 2-11 Rocket 4.3 23:06:55 41° S 23:09:11 76° E 23:15:17 10° NNE
Okean 3 3.7 23:11:26 52° ENE 23:11:26 52° ENE 23:15:12 10° NNE
Cosmos 468 Rocket 4.1 23:10:49 52° SE 23:11:21 54° ESE 23:16:32 10° NNE
Meteor 1-27 Rocket 3.7 23:11:23 35° SSW 23:13:52 80° WNW 23:19:28 10° N
ATLAS CENTAUR R/B 3.6 23:18:47 15° ENE 23:18:47 15° ENE 23:19:37 10° ENE
CARTOSAT-1 3.7 23:17:11 56° SW 23:17:45 62° WSW 23:22:04 10° NNW
CZ-4B R/B 3.4 23:13:12 10° NNE 23:17:55 56° ESE 23:18:01 56° ESE
ATLAS 3B R/B 3.4 23:12:04 10° NW 23:18:43 45° NE 23:22:22 24° E
Cosmos 2369 Rocket 4.2 23:14:59 10° N 23:19:04 20° NE 23:22:20 13° E
Geosat 3.9 23:15:03 10° NE 23:20:03 62° ESE 23:20:27 60° SE
Cosmos 2297 3.7 23:15:16 10° NNW 23:21:01 78° ENE 23:22:22 54° SE
Spot 4 3.7 23:20:41 66° SE 23:21:18 78° ENE 23:26:06 10° NNW
Cosmos 1975 4.4 23:20:01 10° NNE 23:22:55 24° ENE 23:22:55 24° ENE
IGS 5A 3.7 23:23:46 54° WSW 23:24:04 56° W 23:28:10 10° NNW
Aureole 2 Rocket 4.4 23:29:02 20° N 23:29:02 20° N 23:30:05 10° NNE
Cosmos 1745 Rocket 4.4 23:23:29 10° NNW 23:29:42 60° W 23:32:13 36° SSW
COSMOS 2428 4.2 23:26:17 10° WSW 23:31:30 36° NW 23:36:46 10° NNE
Okean 1 Rocket 3.3 23:27:32 10° NNW 23:31:56 60° W 23:32:19 57° WSW
H-2A R/B 3.4 23:30:25 24° SW 23:32:11 30° W 23:36:30 10° NW
CZ-4 R/B 3.7 23:28:16 10° NNE 23:33:06 88° ESE 23:33:41 70° S
Cosmos 2292 Rocket 4.4 23:30:53 10° N 23:32:36 31° NNW 23:32:36 31° NNW
Cosmos 1455 Rocket 4.1 23:30:14 10° N 23:34:11 35° ENE 23:34:11 35° ENE
Cosmos 1674 Rocket 4.3 23:34:44 40° WSW 23:35:38 47° WNW 23:39:50 10° N
Cosmos 2298 Rocket 4.2 23:30:22 10° NNW 23:35:38 62° WSW 23:36:30 54° SSW
Cosmos 1980 3.9 23:37:04 31° SW 23:39:50 70° WNW 23:45:31 10° NNE
Cosmos 371 Rocket 3.9 23:42:58 43° ENE 23:42:58 43° ENE 23:46:54 10° NNE
USA 238 DEB 4.4 23:36:22 10° NW 23:43:13 49° NE 23:47:05 26° E
USA 238 4.4 23:36:28 10° NW 23:43:18 49° NE 23:47:13 25° E
Cosmos 2285 Rocket 4.0 23:43:11 55° SSE 23:44:17 65° ESE 23:50:37 10° NNE
Cosmos 1536 3.8 23:41:05 10° NNW 23:44:50 40° W 23:44:50 40° W
SeaSat 1 4.2 23:44:19 19° WSW 23:45:20 20° WSW 23:48:56 10° WNW
H-2A R/B 3.4 23:45:15 28° WSW 23:45:45 28° W 23:49:34 10° NW
SL-16 R/B 2.2 23:45:56 59° ESE 23:46:02 59° ESE 23:51:38 10° NE
DELTA 2 DEB (DPAF) 4.3 23:47:39 62° WSW 23:47:41 62° WSW 23:52:09 10° NNW
Cosmos 1340 3.9 23:49:42 36° NE 23:49:42 36° NE 23:52:09 10° NNE
NOSS 0 Rocket 4.3 23:44:04 19° SW 23:48:27 61° NW 23:54:34 10° NNE
Cosmos 1937 Rocket 3.8 23:46:33 10° NNW 23:51:40 53° WSW 23:52:08 51° SW
